Content
SEND FEEDBACK

Daily
Averages
Monthly
Summary
United States of America

GREENFIELD, MASSACHUSETTS


Home > North America > United States > Massachusetts
Elevation: 190 feet     Latitude: 42 37N     Longitude: 072 33W

WEATHER
 
SELECT A DAY
Number of Records: 216,812;   Date Range: 7/1/96 - 11/25/14
 
SHARE

PRINT THIS DATA

[ ← Previous Day ]
WEATHER ALMANAC - DECEMBER 7, 2013
[ Next Day → ]
[ °C ]   °F
Weather ElementAverageHighLow
Temperature30.5 °F34 °F (9:43 am)19 °F (11:52 pm)
Dewpoint27.5 °F32 °F (2:09 am)17.1 °F (11:52 pm)
Humidity88.9 %100 % (2:09 am)64 % (1:52 pm)
Barometer30.22 in30.47 in (11:52 pm)30.08 in (1:50 am)
Wind Speed3.5 mph11.5 mph (11:52 am)
Weather ElementAverage
Visibility8.3 mi
Wind DirectionS (175 °)

Weather ElementTotal
Precipitation0.13 in
Heating Degree Days38.5 (Base 65)
Averaged from 38 records on December 7, 2013
WEATHER CONDITIONS BREAKOUT
WIND DIRECTION BREAKOUT
WEATHER BY HOUR - DECEMBER 7, 2013
[ °C ]   °F
Local TimeTemperatureDewpointHumidityBarometerVisibilityWind DirectionWind SpeedGust SpeedPrecipitationEventsConditions
12:21 AM33.1 °F30.9 °F92 %30.11 in1.2 miNNW (330°)9.2 mph0.02 inSnowLight Snow
12:26 AM33.1 °F30.9 °F92 %30.11 in2.0 miNNW (340°)9.2 mph0.02 inSnowLight Snow
12:32 AM33.1 °F30.9 °F92 %30.10 in3.0 miNorth (350°)5.8 mph0.02 inSnowLight Snow
12:45 AM32.0 °F30.9 °F96 %30.09 in2.5 miCalm0.03 inSnowLight Snow
12:52 AM32.0 °F30.9 °F96 %30.11 in3.0 miNNW (340°)4.6 mph0.03 inSnowLight Snow
1:32 AM32.0 °F30.9 °F96 %30.09 in4.0 miCalm0.00 inSnowLight Snow
1:43 AM32.0 °F30.9 °F96 %30.09 in6.0 miCalm0.00 inOvercast
1:50 AM32.0 °F30.2 °F93 %30.08 in8.0 miCalm0.00 inOvercast
1:52 AM32.0 °F30.0 °F92 %30.10 in9.0 miNorth (350°)3.5 mph0.00 inOvercast
2:00 AM32.0 °F30.9 °F96 %30.11 in10.0 miNNW (330°)4.6 mphOvercast
2:09 AM32.0 °F32.0 °F100 %30.11 in10.0 miCalmOvercast
2:14 AM32.0 °F30.9 °F96 %30.12 in10.0 miNW (320°)3.5 mphOvercast
2:52 AM32.0 °F30.0 °F92 %30.12 in5.0 miNNE (20°)4.6 mphOvercast
3:52 AM32.0 °F30.9 °F96 %30.14 in4.0 miCalm0.01 inOvercast
4:19 AM32.0 °F30.9 °F96 %30.13 in9.0 miCalm0.00 inOvercast
4:52 AM32.0 °F30.0 °F92 %30.16 in10.0 miNW (310°)3.5 mph0.00 inOvercast
5:52 AM32.0 °F30.9 °F96 %30.17 in10.0 miCalmOvercast
6:52 AM32.0 °F30.9 °F96 %30.19 in10.0 miCalmOvercast
7:52 AM32.0 °F30.0 °F92 %30.21 in10.0 miCalmOvercast
8:52 AM32.0 °F28.0 °F85 %30.24 in10.0 miNW (320°)5.8 mphMostly Cloudy
9:43 AM34.0 °F28.9 °F82 %30.23 in10.0 miNorth (350°)3.5 mphOvercast
9:52 AM33.1 °F28.9 °F85 %30.25 in10.0 miNNW (330°)3.5 mphOvercast
10:02 AM33.1 °F30.0 °F89 %30.23 in10.0 miCalmOvercast
10:52 AM33.1 °F28.0 °F82 %30.26 in10.0 miWest (270°)6.9 mphOvercast
10:59 AM33.1 °F28.0 °F82 %30.24 in10.0 miWest (280°)9.2 mphOvercast
11:52 AM33.1 °F25.0 °F72 %30.26 in10.0 miWNW (290°)11.5 mphMostly Cloudy
12:52 PM33.1 °F26.1 °F75 %30.26 in10.0 miNW (310°)8.1 mphMostly Cloudy
1:52 PM34.0 °F23.0 °F64 %30.25 in10.0 miNW (310°)11.5 mphClear
2:52 PM33.1 °F25.0 °F72 %30.27 in10.0 miWNW (290°)4.6 mphClear
3:52 PM32.0 °F24.1 °F73 %30.30 in10.0 miWest (280°)5.8 mphClear
4:52 PM28.0 °F23.0 °F81 %30.32 in10.0 miWSW (240°)3.5 mphPartly Cloudy
5:52 PM26.1 °F24.1 °F92 %30.35 in10.0 miWest (280°)3.5 mphClear
6:52 PM24.1 °F21.9 °F91 %30.37 in10.0 miCalmClear
7:52 PM23.0 °F21.9 °F96 %30.40 in10.0 miCalmClear
8:52 PM21.9 °F19.9 °F92 %30.42 in10.0 miWest (260°)4.6 mphClear
9:52 PM21.9 °F18.0 °F85 %30.44 in10.0 miSSE (150°)3.5 mphClear
10:52 PM21.0 °F19.0 °F92 %30.46 in10.0 miCalmClear
11:52 PM19.0 °F17.1 °F92 %30.47 in10.0 miCalmClear
Hourly data recorded from KORE, located miles away from Greenfield, Massachusetts







STORIES FROM OUR PARTNERS